Regional Weather Roundup
Issued by NWS

Home | Current Version | Previous Version | Graphics & Text | Print | Product List | Glossary On
Versions: 1 2 3 4 5 6 7 8 9 10 11 12 13 14 15 16 17 18 19 20 21 22 23 24 25 26 27 28 29 30 31 32 33 34 35 36 37 38 39 40 41 42 43 44 45 46 47 48 49 50
000
ASUS43 KMKX 211000
RWRWI

WISCONSIN REGIONAL WEATHER ROUNDUP
NATIONAL WEATHER SERVICE MILWAUKEE/SULLIVAN WI
500 AM CDT FRI JUL 21 2017

NOTE: "FAIR" INDICATES FEW OR NO CLOUDS BELOW 12,000 FEET WITH NO
SIGNIFICANT WEATHER AND/OR OBSTRUCTIONS TO VISIBILITY.

WIZ001-002-006>008-014>016-023>028-211100-
NORTHWEST WISCONSIN

CITY           SKY/WX    TMP DP  RH WIND       PRES   REMARKS
SUPERIOR ARPT  NOT AVBL
ASHLAND        CLOUDY    61  60  97 CALM      29.95F
HAYWARD        CLOUDY    59  57  93 CALM      29.96F
SIREN          CLOUDY    67  65  94 CALM      29.96S
CUMBERLAND     CLOUDY    63  61  94 S5        29.99R FOG
RICE LAKE      CLOUDY    63  62  97 CALM      29.99R FOG
CHETEK         CLOUDY    63  63 100 SW3       29.99S
LADYSMITH      CLOUDY    62  61  96 CALM      30.00S FOG
EAU CLAIRE     FOG       62  62 100 CALM      29.97F VSB 1/4
MENOMONIE      FOG       64  63  99 E5        29.98F VSB 1/2
NEW RICHMOND   PTCLDY    64  64  99 E3        29.97F FOG
OSCEOLA        PTCLDY    65  65 100 E5        29.98F FOG
$$

WIZ003>005-009-010-017-018-211100-
NORTH CENTRAL WISCONSIN

CITY           SKY/WX    TMP DP  RH WIND       PRES   REMARKS
MANITOWISH WTR FOG       55  55 100 CALM      30.01S VSB 1/2
ARBOR VITAE    CLOUDY    61  59  94 CALM      30.00F
WOODRUFF       CLOUDY    61  59  94 CALM      30.00F
RHINELANDER    CLOUDY    60  60 100 CALM      30.01S
EAGLE RIVER    CLOUDY    57  57 100 CALM      30.01S
LAND O LAKES     N/A     54  54 100 CALM      30.03S FOG
PHILLIPS       PTCLDY    60  60 100 CALM      29.98F
TOMAHAWK         N/A     53  52  97 CALM      30.01S FOG
MEDFORD        FOG       58  58  99 CALM      30.00F VSB 1/2
MERRILL        CLOUDY    57  57 100 CALM      30.02R
$$

WIZ029-030-035-036-043>047-211100-
CENTRAL WISCONSIN

CITY           SKY/WX    TMP DP  RH WIND       PRES   REMARKS
WAUSAU         CLEAR     63  62  97 CALM      30.00R
MOSINEE        CLOUDY    61  61 100 CALM      30.02S FOG
MARSHFIELD     FOG       62  60  93 SW3       30.01R VSB 1/2
STEVENS POINT  MOCLDY    58  58 100 CALM      30.02R FOG
WAUPACA        CLOUDY    64  64  97 CALM      30.00R FOG
WAUTOMA        PTCLDY    63  62  97 CALM      30.02R
WISC RAPIDS    PTCLDY    63  63 100 CALM      30.03R FOG
CAMP DOUGLAS   FOG       61  61 100 CALM      30.00R VSB 1/2
$$

WIZ011>013-019>022-031-037>040-048>050-211100-
NORTHEAST WISCONSIN

CITY           SKY/WX    TMP DP  RH WIND       PRES   REMARKS
ANTIGO         PTCLDY    57  57  99 CALM      30.02S
SHAWANO        MOCLDY    64  62  94 CALM      29.99R FOG
OCONTO         CLEAR     59  58  97 CALM      29.97R
STURGEON BAY     N/A     63  61  93 CALM      29.98R
GREEN BAY      PTCLDY    64  64 100 CALM      29.99R
MANITOWOC      NOT AVBL
APPLETON       PTCLDY    64  63  94 CALM      29.99R
CLINTONVILLE   CLOUDY    63  61  94 CALM      29.99R FOG
OSHKOSH        PTCLDY    68  65  90 W7        30.00R
$$

WIZ032>034-041-042-053>061-211100-
SOUTHWEST WISCONSIN

CITY           SKY/WX    TMP DP  RH WIND       PRES   REMARKS
LA CROSSE      CLOUDY    69  68  96 E6        29.96S FOG
SPARTA         FOG       59  59 100 CALM      29.99S VSB 1/4
VIROQUA        CLOUDY    67  67 100 E6        29.98F
BOSCOBEL       FOG       70  69  97 CALM      29.96R VSB 1/4
PRAIRIE DU CHI CLOUDY    69  68  96 CALM      29.95R
PLATTEVILLE    CLOUDY    73  73 100 SE6       29.97F
$$

WIZ056-057-062-063-064-067-068-211100-
SOUTH CENTRAL WISCONSIN

CITY           SKY/WX    TMP DP  RH WIND       PRES   REMARKS
REEDSBURG      CLOUDY    64  64 100 NE3       29.98F
BARABOO/DELLS  CLOUDY    64  63  96 CALM      29.99F
LONE ROCK      NOT AVBL
MINERAL POINT  CLOUDY    70  70 100 SE5       29.98F
MADISON        CLOUDY    67  66  97 CALM      29.98S
MIDDLETON      CLOUDY    65  65 100 CALM      30.00R
WATERTOWN      CLOUDY    66  66 100 CALM      30.00R
MONROE         CLOUDY    72  68  88 S5        29.99F
JANESVILLE     MOCLDY    72  72 100 CALM      30.00R
$$

WIZ051-052-058>065-066-070>072-211100-
SOUTHEAST WISCONSIN

CITY           SKY/WX    TMP DP  RH WIND       PRES   REMARKS
MILWAUKEE      CLOUDY    73  71  93 NW6       29.99R
WAUKESHA       CLOUDY    64  64 100 CALM      30.01R
MILWAUKEE/TIMM CLOUDY    70  64  83 CALM      30.01R
RACINE         CLOUDY    69  69 100 N3        30.01R
KENOSHA        CLOUDY    67  65  93 W3        30.00S FOG
FOND DU LAC    CLOUDY    68  64  87 CALM      30.01R
SHEBOYGAN      CLOUDY    64  64 100 W3        30.00R
WEST BEND      CLOUDY    64  64 100 CALM      30.01R
JUNEAU         CLOUDY    67  67  98 CALM      30.02R
$$

LSZ147-162-211100-
LAKE SUPERIOR

STATION/POSITION TIME  TEMP    WIND        PRES    WAVE
                       AIR SEA DIR/SP/G            HT/PER
                 (UTC) (F)     (DEG/KT/KT) (MB)    (FT/S)
W MID LAKE BUOY  0850   54 47  230/  4/  8 1014.5R   0
DEVILS ISLAND    0900   69     240/  3/  4 1014.1F
SAXON HARBOR     0930   64     170/  5/  7 1014.2S
$$

LMZ867-665-643>646-211100-
LAKE MICHIGAN

STATION/POSITION TIME  TEMP    WIND        PRES    WAVE
                       AIR SEA DIR/SP/G            HT/PER
                 (UTC) (F)     (DEG/KT/KT) (MB)    (FT/S)
CHAMBERS ISLAND  0940   64     190/  1/  1 1014.2S
S GREEN BAY BUOY 0930   71 72  300/  2/  4 1014.5S
N MID LAKE BUOY  0850   66 65  160/  8/  8 1014.6R   1/ 5
NORTHPORT PIER   0940   67     190/  4/  6 1014.6R
KEWAUNEE LAKESHO 0930   66     300/  3/  3 1013.9S
SHEBOYGAN LAKESH 0900   72     280/  6/  7 1014.6R
PORT WASHINGTON  0940   72     280/  7/  9 1016.3R
ATWATER BUOY     0809   71 66  300/  4/  4 1015.3R
MILWAUKEE LAKESH 0950   74     310/  5/  7   N/A
S MID LAKE BUOY  0850   71 70  310/  6/  6 1015.2R   0
KENOSHA   LAKESH 0900   70     190/  6/  7 1015.2
$$

TC  - TEMPERATURE IN CELSIUS
VSB - VISIBILITY IN STATUTE MILES
WCI - WIND CHILL INDEX
HX  - HEAT INDEX





USA.gov is the U.S. government's official web portal to all federal, state and local government web resources and services.